Flag for India Weather past 2 weeks in Gurgaon, Haryana, India

Now
68 °F

Fog.


Feels Like: 68 °F
Forecast: 65 / 85 °F
Wind: 12 mph from East

Location: New Delhi Palam Airport

Current Time: Mar 30, 2015 at 7:16:03 AM

Latest Report: Mar 30, 2015 at 6:30 AM


Visibility: 2 mi

Pressure: 29.83 "Hg

Humidity: 88%

Dew point: 64 °F

Location of GurgaonLocation

Historic Weather in Gurgaon — Graph

°F

Gurgaon temperature yesterday

Maximum temperature yesterday: 84 °F (at 12:30 PM)
Minimum temperature yesterday: 73 °F (at 1:30 AM)
Average temperature yesterday: 78 °F

Past Weeks' High & Low Weather Summary

 TemperatureHumidityPressure
High97 °F (Mar 26, 3:00 PM)100% (Mar 24, 5:00 AM)30.09 "Hg (Mar 24, 5:00 AM)
Low55 °F (Mar 18, 6:00 AM)20% (Mar 28, 4:00 PM)29.74 "Hg (Mar 29, 5:00 PM)
Average76 °F56%29.94 "Hg
* Reported Mar 15 6:30 AM — Mar 30 6:00 AM, Gurgaon, Weather by CustomWeather, © 2015

Note: Actual official high and low records may vary slightly from our data, if they occured in-between our weather recording intervals... More about our weather records

Advertising

Gurgaon weather history for previous 24 hours

 ConditionsComfort  
Time TempWeatherWind HumidityBarometerVisibility
6:00 AM
Mon, Mar 30
68 °FFog.6 mph88%29.83 "Hg2 mi
5:30 AM70 °FFog.12 mph83%29.80 "Hg2 mi
5:00 AM70 °FFog.12 mph78%29.77 "Hg2 mi
4:00 AM70 °FThunderstorms. Partly cloudy.14 mph83%29.77 "Hg2 mi
3:30 AM70 °FThunderstorms. Mostly cloudy.14 mph83%29.77 "Hg2 mi
2:30 AM68 °FFog.12 mph78%29.80 "Hg2 mi
2:00 AM70 °FFog.14 mph78%29.83 "Hg2 mi
1:30 AM68 °FFog.14 mph83%29.83 "Hg2 mi
1:00 AM68 °FFog.14 mph83%29.80 "Hg1 mi
12:00 AM68 °FMostly cloudy.9 mph88%29.89 "Hg1 mi
10:30 PM
Sun, Mar 29
77 °FPartly cloudy.6 mph54%29.83 "Hg2 mi
10:00 PM77 °FPartly cloudy.6 mph51%29.83 "Hg2 mi
9:30 PM77 °FPassing clouds.14 mph47%29.77 "Hg2 mi
9:00 PM77 °FPassing clouds.14 mph47%29.77 "Hg2 mi
8:30 PM77 °FPassing clouds.14 mph47%29.74 "Hg2 mi
7:30 PM77 °FPassing clouds.9 mph51%29.74 "Hg2 mi
7:00 PM79 °FScattered clouds.9 mph48%29.74 "Hg2 mi
6:30 PM81 °FScattered clouds.9 mph45%29.74 "Hg2 mi
5:30 PM82 °FScattered clouds.9 mph40%29.74 "Hg2 mi
5:00 PM81 °FMore clouds than sun.14 mph45%29.74 "Hg2 mi
4:30 PM81 °FBroken clouds.12 mph45%29.77 "Hg1 mi
4:00 PM82 °FBroken clouds.9 mph45%29.77 "Hg1 mi
3:30 PM81 °FBroken clouds.6 mph51%29.77 "Hg1 mi
2:30 PM81 °FDrizzle. Broken clouds.10 mph48%29.83 "Hg1 mi
2:00 PM82 °FBroken clouds.9 mph40%29.83 "Hg2 mi
12:30 PM84 °FBroken clouds.14 mph37%29.80 "Hg2 mi
12:00 PM82 °FBroken clouds.14 mph40%29.80 "Hg2 mi
11:30 AM82 °FBroken clouds.12 mph40%29.86 "Hg1 mi
11:00 AM81 °FBroken clouds.14 mph45%29.86 "Hg1 mi
10:30 AM77 °FBroken clouds.14 mph51%29.83 "Hg1 mi
9:00 AM77 °FBroken clouds.13 mph51%29.86 "Hg1 mi
8:30 AM81 °FScattered clouds.8 mph32%29.83 "Hg1 mi
8:00 AM79 °FScattered clouds.7 mph34%29.83 "Hg1 mi
7:30 AM79 °FScattered clouds.7 mph34%29.80 "Hg2 mi
7:00 AM79 °FScattered clouds.7 mph37%29.80 "Hg2 mi
Weather by CustomWeather, © 2015

See weather overviewHow to use our weather pages